| time (UTC) | temp C | wind direction | speed KPH | gust KPH | rain 1hr cm | rain 24hr cm | rain mn cm | humidity % | barometer mb |
| 20260505124525 | 13 | 153 | 0.0 | 0.0 | 0.00 | 0.00 | 0.00 | 49 | 1019.0 |
| 20260505123025 | 11 | 153 | 0.0 | 0.0 | 0.00 | 0.00 | 0.00 | 56 | 1019.0 |
| 20260505121514 | 10 | 153 | 0.0 | 0.0 | 0.00 | 0.00 | 0.00 | 60 | 1018.9 |
| 20260505120018 | 8 | 161 | 0.0 | 0.0 | 0.00 | 0.00 | 0.00 | 62 | 1018.8 |
| 20260505114521 | 8 | 161 | 0.0 | 0.0 | 0.00 | 0.00 | 0.00 | 63 | 1018.7 |
| 20260505113022 | 8 | 161 | 0.0 | 0.0 | 0.00 | 0.00 | 0.00 | 62 | 1018.4 |
| 20260505111534 | 8 | 161 | 0.0 | 0.0 | 0.00 | 0.00 | 0.00 | 61 | 1018.4 |
| 20260505101524 | 11 | 102 | 0.0 | 3.2 | 0.00 | 0.00 | 0.00 | 52 | 1018.2 |
| 20260505100031 | 11 | 102 | 0.0 | 3.2 | 0.00 | 0.00 | 0.00 | 50 | 1018.3 |
| 20260505094519 | 12 | 164 | 1.6 | 9.7 | 0.00 | 0.00 | 0.00 | 49 | 1018.1 |
| 20260505093022 | 12 | 221 | 1.6 | 6.4 | 0.00 | 0.00 | 0.00 | 48 | 1017.9 |
| 20260505091528 | 12 | 229 | 3.2 | 12.9 | 0.00 | 0.00 | 0.00 | 47 | 1017.9 |
| 20260505090028 | 12 | 228 | 4.8 | 11.3 | 0.00 | 0.00 | 0.00 | 49 | 1017.9 |
| 20260505084528 | 12 | 304 | 1.6 | 11.3 | 0.00 | 0.00 | 0.00 | 48 | 1017.9 |
| 20260505083022 | 12 | 244 | 1.6 | 9.7 | 0.00 | 0.00 | 0.00 | 47 | 1017.9 |
| 20260505081537 | 12 | 308 | 1.6 | 9.7 | 0.00 | 0.00 | 0.00 | 48 | 1017.8 |
| 20260505080028 | 12 | 254 | 1.6 | 11.3 | 0.00 | 0.00 | 0.00 | 48 | 1017.8 |
| 20260505074529 | 11 | 226 | 0.0 | 11.3 | 0.00 | 0.00 | 0.00 | 50 | 1017.7 |
| 20260505073041 | 11 | 224 | 1.6 | 6.4 | 0.00 | 0.00 | 0.00 | 51 | 1017.6 |
| 20260505071543 | 11 | 226 | 3.2 | 11.3 | 0.00 | 0.00 | 0.00 | 51 | 1017.5 |
| 20260505070007 | 11 | 250 | 0.0 | 4.8 | 0.00 | 0.00 | 0.00 | 53 | 1017.6 |
| 20260505064519 | 11 | 219 | 0.0 | 4.8 | 0.00 | 0.00 | 0.00 | 53 | 1017.7 |
| 20260505063016 | 11 | 228 | 0.0 | 0.0 | 0.00 | 0.00 | 0.00 | 53 | 1017.8 |
| 20260505061519 | 11 | 229 | 0.0 | 3.2 | 0.00 | 0.00 | 0.00 | 53 | 1017.9 |
| 20260505060025 | 11 | 229 | 0.0 | 4.8 | 0.00 | 0.00 | 0.00 | 53 | 1017.9 |
| 20260505054508 | 11 | 229 | 0.0 | 6.4 | 0.00 | 0.00 | 0.00 | 52 | 1018.0 |
| 20260505053019 | 11 | 230 | 1.6 | 4.8 | 0.00 | 0.00 | 0.00 | 52 | 1018.2 |
| 20260505051520 | 12 | 231 | 0.0 | 4.8 | 0.00 | 0.00 | 0.00 | 52 | 1018.2 |
| 20260505041515 | 13 | 230 | 0.0 | 4.8 | 0.00 | 0.00 | 0.00 | 49 | 1018.2 |
| 20260505040032 | 13 | 286 | 1.6 | 12.9 | 0.00 | 0.00 | 0.00 | 47 | 1018.2 |
| 20260505034523 | 13 | 237 | 1.6 | 8.0 | 0.00 | 0.00 | 0.00 | 49 | 1018.4 |
| 20260505033028 | 13 | 213 | 0.0 | 6.4 | 0.00 | 0.00 | 0.00 | 48 | 1018.5 |
| 20260505031512 | 13 | 238 | 1.6 | 11.3 | 0.00 | 0.00 | 0.00 | 47 | 1018.5 |
| 20260505030023 | 13 | 217 | 0.0 | 3.2 | 0.00 | 0.00 | 0.00 | 49 | 1018.6 |
| 20260505024520 | 13 | 217 | 0.0 | 3.2 | 0.00 | 0.00 | 0.00 | 48 | 1018.6 |
| 20260505023024 | 14 | 217 | 0.0 | 1.6 | 0.00 | 0.00 | 0.00 | 46 | 1018.5 |
| 20260505021526 | 15 | 217 | 0.0 | 0.0 | 0.00 | 0.00 | 0.00 | 44 | 1018.4 |
| 20260505020013 | 15 | 217 | 0.0 | 3.2 | 0.00 | 0.00 | 0.00 | 44 | 1018.2 |
| 20260505014517 | 16 | 217 | 0.0 | 4.8 | 0.00 | 0.00 | 0.00 | 43 | 1018.2 |
| 20260505013020 | 17 | 219 | 0.0 | 4.8 | 0.00 | 0.00 | 0.00 | 41 | 1018.1 |
| 20260505011524 | 17 | 98 | 1.6 | 11.3 | 0.00 | 0.00 | 0.00 | 39 | 1017.8 |
| 20260505010027 | 17 | 167 | 1.6 | 9.7 | 0.00 | 0.00 | 0.00 | 38 | 1017.6 |
| 20260505004514 | 18 | 184 | 3.2 | 16.1 | 0.00 | 0.00 | 0.00 | 37 | 1017.3 |
| 20260505003020 | 18 | 165 | 1.6 | 9.7 | 0.00 | 0.00 | 0.00 | 36 | 1017.2 |
| 20260505001521 | 19 | 169 | 1.6 | 12.9 | 0.00 | 0.00 | 0.00 | 34 | 1017.0 |
| 20260505000028 | 20 | 148 | 0.0 | 12.9 | 0.00 | 0.00 | 0.00 | 34 | 1016.8 |
| 20260504234527 | 20 | 149 | 0.0 | 4.8 | 0.00 | 0.00 | 0.00 | 32 | 1016.7 |
| 20260504233013 | 21 | 148 | 4.8 | 14.5 | 0.00 | 0.00 | 0.00 | 31 | 1016.4 |
| 20260504231520 | 21 | 325 | 1.6 | 16.1 | 0.00 | 0.00 | 0.00 | 30 | 1016.5 |
| 20260504230026 | 22 | 94 | 1.6 | 14.5 | 0.00 | 0.00 | 0.00 | 28 | 1016.2 |
| 20260504224528 | 22 | 168 | 4.8 | 20.9 | 0.00 | 0.00 | 0.00 | 26 | 1016.1 |
| 20260504223025 | 22 | 188 | 4.8 | 19.3 | 0.00 | 0.00 | 0.00 | 23 | 1016.0 |
| 20260504221522 | 22 | 149 | 3.2 | 16.1 | 0.00 | 0.00 | 0.00 | 17 | 1016.0 |
| 20260504220024 | 22 | 51 | 3.2 | 16.1 | 0.00 | 0.00 | 0.00 | 17 | 1016.0 |
| 20260504214526 | 22 | 32 | 4.8 | 17.7 | 0.00 | 0.00 | 0.00 | 17 | 1016.2 |
| 20260504213028 | 23 | 347 | 9.7 | 20.9 | 0.00 | 0.00 | 0.00 | 18 | 1016.0 |
| 20260504211528 | 23 | 344 | 8.0 | 20.9 | 0.00 | 0.00 | 0.00 | 18 | 1016.1 |
| 20260504210024 | 23 | 292 | 14.5 | 29.0 | 0.00 | 0.00 | 0.00 | 17 | 1016.1 |
| 20260504204526 | 23 | 51 | 6.4 | 27.4 | 0.00 | 0.00 | 0.00 | 20 | 1016.1 |
| 20260504203026 | 23 | 223 | 4.8 | 22.5 | 0.00 | 0.00 | 0.00 | 17 | 1016.4 |
| 20260504201510 | 23 | 46 | 4.8 | 19.3 | 0.00 | 0.00 | 0.00 | 20 | 1016.4 |
| 20260504200029 | 23 | 218 | 6.4 | 17.7 | 0.00 | 0.00 | 0.00 | 19 | 1016.6 |
| 20260504194521 | 23 | 19 | 3.2 | 24.1 | 0.00 | 0.00 | 0.00 | 18 | 1016.9 |
| 20260504193007 | 23 | 314 | 4.8 | 17.7 | 0.00 | 0.00 | 0.00 | 18 | 1017.3 |
| 20260504191520 | 23 | 91 | 9.7 | 19.3 | 0.00 | 0.00 | 0.00 | 17 | 1017.4 |
| 20260504190013 | 23 | 38 | 1.6 | 17.7 | 0.00 | 0.00 | 0.00 | 17 | 1017.6 |
| 20260504184519 | 23 | 98 | 1.6 | 14.5 | 0.00 | 0.00 | 0.00 | 17 | 1017.7 |
| 20260504183035 | 23 | 203 | 1.6 | 16.1 | 0.00 | 0.00 | 0.00 | 15 | 1017.8 |
| 20260504181507 | 23 | 351 | 4.8 | 16.1 | 0.00 | 0.00 | 0.00 | 18 | 1017.7 |
| 20260504180012 | 22 | 117 | 4.8 | 16.1 | 0.00 | 0.00 | 0.00 | 20 | 1017.8 |
| 20260504174519 | 22 | 350 | 4.8 | 14.5 | 0.00 | 0.00 | 0.00 | 22 | 1018.1 |
| 20260504173023 | 23 | 171 | 1.6 | 8.0 | 0.00 | 0.00 | 0.00 | 20 | 1018.4 |
| 20260504171524 | 22 | 319 | 3.2 | 8.0 | 0.00 | 0.00 | 0.00 | 22 | 1018.6 |